EW6511 Weather Reports


Display with metric or nautical units.
time (UTC)temp
F
wind
direction
speed
MPH
gust
MPH
rain 1hr
in
rain 24hr
in
rain mn
in
humidity
%
barometer
mb
20260901030706 56 213 0.0 0.0 0.00 0.01 0.00 64 1024.4
20260901025706 56 213 0.0 0.0 0.00 0.01 0.00 64 1024.4
20260901024704 56 213 0.0 0.0 0.00 0.01 0.00 63 1024.5
20260901023704 57 213 0.0 0.0 0.00 0.01 0.00 62 1024.5
20260901022700 57 213 0.0 0.0 0.00 0.01 0.00 62 1024.5
20260901021701 58 213 0.0 0.0 0.00 0.01 0.00 60 1024.5
20260901020659 58 213 0.0 0.0 0.00 0.01 0.00 60 1024.5
20260901013659 58 213 0.0 0.0 0.00 0.01 0.00 60 1024.6
20260901012659 58 213 0.0 1.0 0.00 0.01 0.00 60 1024.6
20260901005658 58 213 0.0 0.0 0.00 0.01 0.00 61 1024.7
20260901004659 58 213 0.0 0.0 0.00 0.01 0.00 61 1024.6
20260901003708 58 213 1.0 4.0 0.00 0.01 0.00 61 1024.6
20260901001655 59 215 0.0 0.0 0.00 0.01 0.00 60 1024.7
20260831235656 59 215 1.0 3.0 0.00 0.01 0.00 59 1024.6
20260831234657 59 215 2.0 3.0 0.00 0.01 0.00 59 1024.6
20260831233657 59 215 1.0 2.0 0.00 0.02 0.00 59 1024.7
20260831232655 59 215 1.0 3.0 0.00 0.02 0.00 59 1024.7
20260831231657 60 215 2.0 3.0 0.00 0.02 0.00 59 1024.6
20260831230656 60 215 1.0 3.0 0.00 0.02 0.00 59 1024.6
20260831225657 60 215 0.0 0.0 0.00 0.03 0.00 57 1024.7
20260831224651 60 215 1.0 2.0 0.00 0.05 0.00 58 1024.7
20260831223649 60 215 2.0 3.0 0.00 0.05 0.00 57 1024.7
20260831222650 61 215 1.0 3.0 0.00 0.05 0.00 56 1024.8
20260831220648 61 215 0.0 3.0 0.00 0.05 0.00 56 1024.8
20260831215649 62 215 0.0 2.0 0.00 0.05 0.05 55 1024.9
20260831214647 62 215 1.0 3.0 0.00 0.05 0.05 54 1024.8
20260831213649 63 215 1.0 3.0 0.00 0.05 0.05 53 1024.9
20260831211643 63 215 1.0 3.0 0.00 0.05 0.05 52 1024.8
20260831210642 63 215 0.0 2.0 0.00 0.05 0.05 52 1024.8
20260831205642 64 215 0.0 2.0 0.00 0.05 0.05 51 1024.7
20260831204642 64 215 1.0 3.0 0.00 0.05 0.05 50 1024.7
20260831203642 65 215 2.0 4.0 0.00 0.05 0.05 50 1024.6
20260831201642 65 216 1.0 3.0 0.00 0.05 0.05 50 1024.5
20260831200643 65 216 2.0 4.0 0.00 0.05 0.05 48 1024.4
20260831195642 65 220 2.0 4.0 0.00 0.05 0.05 48 1024.4
20260831194639 65 229 2.0 4.0 0.00 0.05 0.05 47 1024.4
20260831193639 66 227 2.0 4.0 0.00 0.05 0.05 47 1024.3
20260831192640 66 228 2.0 3.0 0.00 0.05 0.05 47 1024.1
20260831191640 66 227 2.0 3.0 0.00 0.05 0.05 46 1024.2
20260831190639 67 227 2.0 4.0 0.00 0.05 0.05 47 1024.1
20260831185639 67 238 3.0 6.0 0.00 0.05 0.05 45 1024.0
20260831184640 67 253 4.0 7.0 0.00 0.05 0.05 45 1023.7
20260831183639 67 254 5.0 10.0 0.00 0.05 0.05 45 1023.6
20260831181637 68 257 10.0 15.0 0.00 0.05 0.05 43 1023.4
20260831180636 69 284 7.0 14.0 0.00 0.05 0.05 43 1023.3
20260831175636 69 265 8.0 14.0 0.00 0.05 0.05 42 1023.2
20260831174639 70 263 11.0 18.0 0.00 0.05 0.05 42 1023.0
20260831173638 70 284 12.0 19.0 0.00 0.05 0.05 41 1023.0
20260831172635 71 258 10.0 17.0 0.00 0.05 0.05 42 1022.9
20260831171635 71 284 11.0 17.0 0.00 0.05 0.05 42 1022.8
20260831164630 71 256 14.0 23.0 0.00 0.05 0.05 40 1022.6
20260831162626 73 277 13.0 20.0 0.00 0.05 0.05 39 1022.3
20260831161627 73 303 14.0 24.0 0.00 0.05 0.05 37 1022.3
20260831160627 73 291 15.0 25.0 0.00 0.05 0.05 37 1022.1
20260831155627 74 290 15.0 25.0 0.00 0.05 0.05 36 1022.1
20260831154628 74 294 13.0 21.0 0.00 0.05 0.05 35 1022.1
20260831153622 74 277 15.0 22.0 0.00 0.05 0.05 34 1022.0
20260831152624 74 288 13.0 19.0 0.00 0.05 0.05 33 1022.1
20260831151623 74 266 14.0 23.0 0.00 0.05 0.05 33 1021.9
20260831150623 74 300 12.0 19.0 0.00 0.05 0.05 33 1021.8
20260831145624 73 282 12.0 19.0 0.00 0.05 0.05 33 1021.9
20260831144623 73 280 12.0 19.0 0.00 0.05 0.05 34 1021.8
20260831143623 74 291 14.0 19.0 0.00 0.05 0.05 32 1021.8
20260831142622 75 299 12.0 20.0 0.00 0.05 0.05 32 1021.7
20260831140624 74 277 13.0 27.0 0.00 0.05 0.05 27 1021.6
20260831135624 74 279 11.0 21.0 0.00 0.05 0.05 31 1021.7
20260831134623 74 256 10.0 18.0 0.00 0.05 0.05 34 1021.7
20260831133624 74 257 11.0 21.0 0.00 0.05 0.05 34 1021.7
20260831132623 74 203 14.0 24.0 0.00 0.05 0.05 34 1021.6
20260831131623 75 261 10.0 17.0 0.00 0.05 0.05 38 1021.8
20260831125622 74 240 16.0 25.0 0.00 0.05 0.05 39 1021.7
20260831124624 73 257 17.0 29.0 0.00 0.05 0.05 41 1021.6
20260831123623 73 244 16.0 30.0 0.00 0.05 0.05 40 1021.7
20260831121624 72 269 17.0 27.0 0.00 0.05 0.05 39 1021.7
20260831120619 72 270 16.0 30.0 0.00 0.05 0.05 42 1021.6
20260831115619 72 244 14.0 23.0 0.00 0.05 0.05 43 1021.8
20260831114615 72 155 13.0 22.0 0.00 0.05 0.05 47 1021.8
20260831113615 71 263 17.0 27.0 0.00 0.05 0.05 46 1022.0
20260831112616 71 243 15.0 28.0 0.00 0.05 0.05 49 1021.8
20260831111615 71 241 15.0 26.0 0.00 0.05 0.05 50 1021.9
20260831110616 70 274 16.0 27.0 0.00 0.05 0.05 51 1022.0
20260831105615 70 290 16.0 23.0 0.00 0.05 0.05 53 1022.0
20260831104611 69 267 13.0 25.0 0.00 0.05 0.05 54 1021.9
20260831103612 70 269 12.0 20.0 0.00 0.05 0.05 54 1022.0
20260831102616 69 257 11.0 20.0 0.00 0.05 0.05 55 1022.0
20260831101611 69 273 9.0 18.0 0.00 0.05 0.05 54 1022.1
20260831100612 69 246 9.0 21.0 0.00 0.05 0.05 54 1022.1
20260831094610 68 261 10.0 23.0 0.00 0.05 0.05 54 1022.1
20260831093611 68 250 10.0 20.0 0.00 0.05 0.05 55 1022.1
20260831092608 68 253 7.0 14.0 0.00 0.05 0.05 56 1022.1
20260831091609 68 259 8.0 15.0 0.00 0.05 0.05 57 1022.0
20260831090609 68 217 8.0 14.0 0.00 0.05 0.05 55 1022.1
20260831085609 67 245 10.0 14.0 0.00 0.05 0.05 60 1022.1
20260831084608 66 269 9.0 16.0 0.00 0.05 0.05 57 1022.1
20260831083606 65 288 10.0 17.0 0.00 0.05 0.05 58 1022.0
20260831082607 65 221 8.0 16.0 0.00 0.05 0.05 58 1022.0
20260831080606 64 257 9.0 15.0 0.00 0.05 0.05 60 1022.0
20260831075607 63 267 9.0 17.0 0.00 0.05 0.05 59 1022.0
20260831074606 63 311 10.0 19.0 0.00 0.05 0.05 60 1021.8
20260831073608 63 269 6.0 13.0 0.00 0.05 0.05 62 1021.9
20260831072606 62 253 7.0 14.0 0.00 0.05 0.05 62 1021.8
20260831071606 62 260 7.0 14.0 0.00 0.05 0.05 62 1021.7
20260831070607 62 248 8.0 13.0 0.00 0.05 0.05 62 1021.6
20260831064608 62 246 6.0 12.0 0.00 0.05 0.05 63 1021.6
20260831063601 62 255 5.0 11.0 0.00 0.05 0.05 63 1021.6
20260831062601 62 261 7.0 12.0 0.00 0.05 0.05 63 1021.6
20260831061600 62 267 7.0 11.0 0.00 0.05 0.05 64 1021.4
20260831060601 62 254 7.0 11.0 0.00 0.05 0.05 64 1021.4
20260831055600 62 265 8.0 13.0 0.00 0.05 0.05 64 1021.3
20260831054601 62 262 8.0 13.0 0.00 0.05 0.05 64 1021.2
20260831053601 62 257 7.0 13.0 0.00 0.05 0.05 65 1021.2
20260831052602 62 279 7.0 10.0 0.00 0.05 0.05 65 1021.1
20260831051558 62 262 9.0 12.0 0.00 0.05 0.05 65 1021.0
20260831050558 62 271 8.0 13.0 0.01 0.05 0.05 66 1021.0
20260831045558 62 244 9.0 14.0 0.01 0.05 0.05 67 1021.0
20260831044558 62 253 4.0 10.0 0.01 0.05 0.05 69 1021.0
20260831043559 61 235 0.0 2.0 0.01 0.05 0.05 70 1021.0
20260831042559 61 235 1.0 3.0 0.01 0.05 0.05 70 1020.9
20260831040558 62 236 2.0 4.0 0.00 0.04 0.04 69 1020.9
20260831035556 62 242 3.0 7.0 0.00 0.04 0.04 69 1020.8
20260831034555 62 252 2.0 4.0 0.00 0.04 0.04 69 1020.7
20260831033556 62 239 1.0 3.0 0.00 0.04 0.04 68 1020.7
20260831032556 62 206 1.0 3.0 0.00 0.04 0.04 68 1020.8